This is the latest recevied weather packets stored in our database for station/object W8UFO-13. If no packets are shown the sender has not sent any weather packets the latest 10 day(s).
| Time | Temp. | Humidity | Pressure | Rain* | Wind** | Luminosity | Snow |
|---|---|---|---|---|---|---|---|
| 1777862957 | 11.67° C | 69% | 1018.3 hPa | 0 mm | - | - | - |
| 1777862657 | 11.67° C | 69% | 1018.3 hPa | 0 mm | - | - | - |
| 1777862357 | 11.67° C | 68% | 1018.2 hPa | 0 mm | - | - | - |
| 1777862057 | 11.67° C | 68% | 1018.2 hPa | 0 mm | - | - | - |
| 1777861757 | 12.22° C | 69% | 1018.2 hPa | 0 mm | - | - | - |
| 1777861457 | 11.67° C | 68% | 1018.1 hPa | 0 mm | - | - | - |
| 1777861157 | 12.22° C | 67% | 1018.1 hPa | 0 mm | - | - | - |
| 1777860857 | 12.22° C | 67% | 1018 hPa | 0 mm | - | - | - |
| 1777860557 | 12.22° C | 66% | 1018.1 hPa | 0 mm | - | - | - |
| 1777860257 | 12.22° C | 66% | 1018 hPa | 0 mm | - | - | - |
| 1777859957 | 12.78° C | 65% | 1018.1 hPa | 0 mm | - | - | - |
| 1777859657 | 12.78° C | 65% | 1018.1 hPa | 0 mm | - | - | - |
| 1777859357 | 12.78° C | 64% | 1018 hPa | 0 mm | - | - | - |
| 1777859057 | 13.33° C | 63% | 1018 hPa | 0 mm | - | - | - |
| 1777858757 | 13.33° C | 62% | 1018 hPa | 0 mm | - | - | - |
| 1777858457 | 13.33° C | 62% | 1017.9 hPa | 0 mm | - | - | - |
| 1777858157 | 13.33° C | 61% | 1017.8 hPa | 0 mm | - | - | - |
| 1777857857 | 13.33° C | 61% | 1017.9 hPa | 0 mm | - | - | - |
| 1777857557 | 13.33° C | 62% | 1017.9 hPa | 0 mm | - | - | - |
| 1777857257 | 13.33° C | 61% | 1018.1 hPa | 0 mm | - | - | - |
| 1777856957 | 13.89° C | 60% | 1017.9 hPa | 0 mm | - | - | - |
| 1777856657 | 13.89° C | 58% | 1017.9 hPa | 0 mm | - | - | - |
| 1777856357 | 14.44° C | 59% | 1017.9 hPa | 0 mm | - | - | - |
| 1777856057 | 14.44° C | 58% | 1017.8 hPa | 0 mm | - | - | - |
| 1777855757 | 14.44° C | 58% | 1017.8 hPa | 0 mm | - | - | - |
* Rain latest hour (hover to see other rain measurements)
** Current wind speed in m/s (hover to see current wind gust speed)